Orumieh, Iran

6:10 PM +0430 on April 28, 2017 (GMT +0430)
Uromiyeh

Weather History for OITR - November, 2013

Change the Weather History Date:

Thursday, November 14, 2013

  Actual Average Record
Temperature  
Mean Temperature 44 °F -  
Max Temperature 56 °F - - ()
Min Temperature 32 °F - - ()
Degree Days  
Heating Degree Days 21    
Moisture  
Dew Point 38 °F    
Average Humidity 79    
Maximum Humidity 100    
Minimum Humidity 46    
Precipitation  
Precipitation 0.00 in - - ()
Sea Level Pressure  
Sea Level Pressure 30.07 in    
Wind  
Wind Speed 5 mph ()    
Max Wind Speed 9 mph    
Max Gust Speed -    
Visibility 8.2 miles    
Events      
T = Trace of Precipitation, MM = Missing Value Source: Averaged Metar Reports

Daily Weather History Graph

Daily Weather History Graph

Search for Another Location

Airport or City:

Trip Planner

Search our weather history database for the weather conditions in past years. The results will help you decide how hot, cold, wet, or windy it might be!

Date:

Astronomy

Nov. 14, 2013 Rise Set
Actual Time 7:08 AM +0330 5:19 PM +0330
Civil Twilight 6:40 AM +0330 5:47 PM +0330
Nautical Twilight 6:09 AM +0330 6:18 PM +0330
Astronomical Twilight 5:38 AM +0330 6:49 PM +0330
Moon 3:24 PM +0330 (11/14) 3:44 AM +0330 (11/14)
Length of Visible Light 11h 06m
Length of Day
10h 10m
Waxing Gibbous, 89% of the Moon is Illuminated
Nov 14
Waxing Gibbous
Nov 17
Full
Nov 25
Last Quarter
Dec 3
New
Dec 9
First Quarter

Hourly Weather History & Observations

Time (+0330) Temp. Windchill Dew Point Humidity Pressure Visibility Wind Dir Wind Speed Gust Speed Precip Events Conditions
12:00 AM 39.2 °F 35.9 °F 39.2 °F 100% 30.09 in 6.2 mi WSW 4.6 mph - N/A   Partly Cloudy
12:30 AM 39 °F - 38 °F 92% 30.06 in 7 mi West 4.5 mph - -   Scattered Clouds
12:30 AM 39.2 °F 35.9 °F 37.4 °F 93% 30.06 in 6.2 mi West 4.6 mph - N/A   Partly Cloudy
3:30 AM 35 °F - 34 °F 95% 30.07 in 9 mi WSW 6.7 mph - -  
3:30 AM 33.8 °F 27.7 °F 33.8 °F 100% 30.06 in - WSW 6.9 mph - N/A   Clear
5:20 AM 32.0 °F 25.6 °F 32.0 °F 100% 30.06 in - West 6.9 mph - N/A   Clear
6:00 AM 33.8 °F 27.7 °F 33.8 °F 100% 30.06 in - WSW 6.9 mph - N/A   Clear
6:30 AM 35 °F - 33 °F 88% 30.09 in 7 mi WSW 6.7 mph - -  
6:30 AM 33.8 °F 27.7 °F 32.0 °F 93% 30.06 in - WSW 6.9 mph - N/A   Clear
7:00 AM 35.6 °F 29.9 °F 33.8 °F 93% 30.06 in - West 6.9 mph - N/A   Clear
7:30 AM 35.6 °F 31.7 °F 35.6 °F 100% 30.09 in - WSW 4.6 mph - N/A   Clear
8:00 AM 37.4 °F 33.8 °F 35.6 °F 93% 30.09 in - WSW 4.6 mph - N/A   Clear
8:30 AM 41.0 °F 38.0 °F 39.2 °F 93% 30.09 in - WSW 4.6 mph - N/A   Clear
9:00 AM 46.4 °F 44.3 °F 41.0 °F 81% 30.09 in - WSW 4.6 mph - N/A   Clear
9:30 AM 48 °F - 41 °F 70% 30.08 in 7 mi West 4.5 mph - -  
9:30 AM 48.2 °F - 41.0 °F 76% 30.09 in - West 4.6 mph - N/A   Clear
10:00 AM 51.8 °F - 41.0 °F 67% 30.09 in - Calm Calm - N/A   Clear
10:30 AM 51.8 °F - 41.0 °F 67% 30.09 in - NNW 4.6 mph - N/A   Clear
11:00 AM 53.6 °F - 42.8 °F 67% 30.09 in - Calm Calm - N/A   Clear
11:30 AM 53.6 °F - 41.0 °F 62% 30.09 in 6.2 mi East 4.6 mph - N/A   Partly Cloudy
12:00 PM 53.6 °F - 41.0 °F 62% 30.09 in 6.2 mi East 4.6 mph - N/A   Partly Cloudy
12:30 PM 55 °F - 40 °F 46% 30.04 in 16 mi East 6.7 mph - -   Scattered Clouds
12:30 PM 55.4 °F - 39.2 °F 54% 30.06 in 6.2 mi East 6.9 mph - N/A   Partly Cloudy
1:00 PM 55.4 °F - 39.2 °F 54% 30.06 in 6.2 mi ENE 4.6 mph - N/A   Partly Cloudy
1:30 PM 55.4 °F - 42.8 °F 63% 30.04 in 6.2 mi NE 4.6 mph - N/A   Partly Cloudy
2:00 PM 57.2 °F - 41.0 °F 55% 30.04 in 6.2 mi ENE 4.6 mph - N/A   Partly Cloudy
2:30 PM 57.2 °F - 42.8 °F 59% 30.04 in 6.2 mi ENE 9.2 mph - N/A   Partly Cloudy
3:00 PM 57.2 °F - 42.8 °F 59% 30.04 in 6.2 mi East 6.9 mph - N/A   Partly Cloudy
3:30 PM 56 °F - 42 °F 49% 30.02 in 16 mi ENE 8.9 mph - -   Scattered Clouds
3:30 PM 55.4 °F - 42.8 °F 63% 30.04 in 6.2 mi ENE 9.2 mph - N/A   Partly Cloudy
4:00 PM 55.4 °F - 41.0 °F 58% 30.04 in 6.2 mi East 6.9 mph - N/A   Partly Cloudy
4:30 PM 53.6 °F - 39.2 °F 58% 30.04 in 6.2 mi SE 4.6 mph - N/A   Partly Cloudy
5:30 PM 50.0 °F - 37.4 °F 62% 30.06 in 6.2 mi SE 4.6 mph - N/A   Partly Cloudy
6:30 PM 43 °F - 39 °F 80% 30.11 in 16 mi Calm Calm - -   Clear
6:30 PM 42.8 °F - 39.2 °F 87% 30.06 in - Calm Calm - N/A   Clear
7:00 PM 41.0 °F 38.0 °F 37.4 °F 87% 30.06 in - West 4.6 mph - N/A   Clear
7:30 PM 41.0 °F 38.0 °F 37.4 °F 87% 30.06 in - West 4.6 mph - N/A   Clear
8:00 PM 41.0 °F 38.0 °F 37.4 °F 87% 30.06 in - West 4.6 mph - N/A   Clear
8:30 PM 39.2 °F 35.9 °F 35.6 °F 87% 30.06 in - West 4.6 mph - N/A   Clear
9:00 PM 37.4 °F 33.8 °F 37.4 °F 100% 30.06 in - West 4.6 mph - N/A   Clear
9:30 PM 39 °F - 38 °F 97% 30.06 in 16 mi WSW 4.5 mph - -  
9:30 PM 39.2 °F 35.9 °F 39.2 °F 100% 30.06 in - WSW 4.6 mph - N/A   Clear
10:30 PM 37.4 °F 32.1 °F 35.6 °F 93% 30.06 in - WSW 6.9 mph - N/A   Clear
11:00 PM 37.4 °F 32.1 °F 35.6 °F 93% 30.06 in - WSW 6.9 mph - N/A   Clear
11:30 PM 39.2 °F 34.2 °F 37.4 °F 93% 30.06 in - WSW 6.9 mph - N/A   Clear